Other Public Products
Issued by NWS Grand Forks, ND

Home | Current Version | Previous Version | Text Only | Print | Product List | Glossary Off
Versions: 1 2 3 4 5 6 7 8 9 10 11 12 13 14 15 16 17 18 19 20 21 22 23 24 25 26 27 28 29 30 31 32 33 34 35 36 37 38 39 40 41 42 43 44 45 46 47 48 49 50

000
FPUS83 KFGF 161710
OPUFGF
PRAIRIE TO PINES WEATHER ROUNDUP
NATIONAL WEATHER SERVICE EASTERN NORTH DAKOTA/GRAND FORKS ND
1200 PM CDT WED AUG 16 2017

 **SATELLITE DATA USED TO AUGMENT SKY COVER AT AUTOMATED STATIONS**
 *****  WEATHER ACROSS EASTERN NORTH DAKOTA  *****

CITY           SKY/WX    TMP DP  RH WIND       PRES   REMARKS
GRAND FORKS    CLOUDY    66  65  96 E3        29.86S
GRAND FORKS AF CLOUDY    65  65 100 E3        29.87S
GRAND CITY NWS NOT AVBL
BUXTON           N/A     67  66  98 S2          N/A
DEVILS LAKE    CLOUDY    66  61  84 N10       29.90S
FARGO          LGT RAIN  67  67 100 S5        29.85R FOG
WAHPETON ARPT  CLOUDY    66  63  88 S6        29.85F
$$

 *****  WEATHER ACROSS CENTRAL AND WESTERN NORTH DAKOTA  *****

CITY           SKY/WX    TMP DP  RH WIND       PRES   REMARKS
JAMESTOWN      CLOUDY    69  64  84 N13       29.86S
BISMARCK       CLOUDY    68  61  78 N10       29.94S
MINOT          FAIR      65  61  87 VRB5      29.94S
MINOT AFB      SUNNY     65  65 100 NW3       29.93S
GARRISON         N/A     70  63  78 N5        29.94F
WILLISTON      FAIR      72  59  63 SE6       29.95F
DICKINSON      FAIR      73  60  63 NE7       29.97S
HETTINGER      FAIR      72  59  63 NE10      29.99F
$$

 *****  OTHER OBSERVATIONS NORTHEAST NORTH DAKOTA  *****

CITY           SKY/WX    TMP DP  RH WIND       PRES   REMARKS
WALHALLA       FAIR      66  66 100 VRB6      29.89S
LANGDON        CLOUDY    64  64 100 CALM      29.91S
CAVALIER       CLOUDY    68  61  77 CALM      29.88F
GRAFTON        CLOUDY    64  64 100 NE7       29.90S FOG
CANDO          CLOUDY    68  66  94 NW8       29.93S
FORT TOTTEN      N/A     67  63  86 N5        29.95S
ROLLA          PTSUNNY   68  64  88 NW9       29.93S
RUGBY          PTSUNNY   68  63  83 NW7       29.92S
 ***** THE ABOVE OBSERVATIONS ARE NON NWS ARE NOT QUALITY
        CONTROLLED AND MAY MIS-REPORT RAIN FOR SNOW...
$$

 *****  OTHER OBSERVATIONS SOUTHEAST NORTH DAKOTA *****

CITY           SKY/WX    TMP DP  RH WIND       PRES   REMARKS
COOPERSTOWN    CLOUDY    66  66 100 N7        29.87S
VALLEY CITY      N/A     66  66 100 NW5       29.87S
OAKES          NOT AVBL
GWINNER        CLOUDY    66  66 100 CALM      29.85S FOG
SHEYENNE NWR     N/A     66  66 100 SE2       29.95S
BUFFALO          N/A     65  62  92 W3          N/A
WYNDMERE       NOT AVBL
 ***** THE ABOVE OBSERVATIONS ARE NON NWS ARE NOT QUALITY
       CONTROLLED AND MAY MIS-REPORT RAIN FOR SNOW...
$$

  *****  WEATHER ACROSS NORTHERN MINNESOTA  *****

CITY           SKY/WX    TMP DP  RH WIND       PRES   REMARKS
FLAG ISLAND    LGT RAIN  64  61  88 CALM      29.93R
WARROAD        LGT RAIN  64  61  88 E9        29.91F
ROSEAU         LGT RAIN  63  57  82 E8        29.91S
HALLOCK        CLOUDY    66  63  88 E6        29.89S
THF RVR FALLS  CLOUDY    63  62  97 E6        29.89S
HALSTAD        NOT AVBL
FOSSTON        CLOUDY    64  63  94 SE6       29.88S
BAUDETTE       CLOUDY    63  59  87 NE7       29.93S
WASKISH        LGT RAIN  66  61  82 SE7       29.91S
CROOKSTON      CLOUDY    66  64  94 S6        29.87S FOG
$$
  *****  WEATHER ACROSS CENTRAL AND WEST MINNESOTA  *****

CITY           SKY/WX    TMP DP  RH WIND       PRES   REMARKS
BEMIDJI        CLOUDY    63  60  90 SE8       29.90S
PARK RAPIDS    CLOUDY    65  63  93 SE10      29.89S FOG
WADENA         CLOUDY    64  64 100 SE8       29.88R FOG
DETROIT LAKES  CLOUDY    64  63  94 S6        29.89R
MOORHEAD       DRZL/FOG  66  64  94 SE3       29.86S VSB 1
FERGUS FALLS   DRIZZLE   66  66 100 SW6       29.86S
ELBOW LAKE     DRIZZLE   66  66  99 S6        29.86F
MORRIS MN      LGT RAIN  68  66  94 S7        29.85S
STAPLES        LGT RAIN  63  63 100 SE6       29.89S
WHEATON        RAIN      68  64  88 CALM      29.86F
$$
  *****  WEATHER ELSEWHERE ACROSS MINNESOTA  *****

CITY           SKY/WX    TMP DP  RH WIND       PRES   REMARKS
DULUTH         CLOUDY    63  57  81 E13       29.97F
INTRNTL FALLS  CLOUDY    71  57  61 SE12      29.94F
ELY            FAIR      70  50  49 E7        29.99S
CLOQUET        CLOUDY    63  57  82 E12       29.96F
BRAINERD       CLOUDY    65  62  90 SE10      29.90S
HIBBING        CLOUDY    67  58  72 SE12      29.95F
ALEXANDRIA     CLOUDY    66  65  96 S9        29.89S FOG
SAINT CLOUD    CLOUDY    67  66  97 E6        29.88F
MINNEAPOLIS    CLOUDY    71  64  78 SE13      29.88F
$$

  *****  WEATHER ACROSS SOUTH DAKOTA  *****

CITY           SKY/WX    TMP DP  RH WIND       PRES   REMARKS
SIOUX FALLS    RAIN      68  67  96 N5        29.81S FOG
BROOKINGS      LGT RAIN  67  65  93 NE7       29.83F
WATERTOWN      LGT RAIN  67  67 100 E3        29.84S
HURON          RAIN      68  66  93 CALM      29.84R FOG
SISSETON         N/A     68  67  96 S3        29.84S
ABERDEEN       LGT RAIN  69  66  90 NW6       29.84S
MITCHELL       LGT RAIN  68  66  93 N3        29.85R
PIERRE         CLOUDY    66  59  78 N15G23    29.88S
MOBRIDGE       PTSUNNY   68  60  75 N12       29.89R
RAPID CITY     FAIR      72  55  55 N18G25    30.00F
$$

  *****  SOME WEATHER IN NEARBY STATES *****

CITY           SKY/WX    TMP DP  RH WIND       PRES   REMARKS
GLASGOW MT     FAIR      77  52  41 S6        29.91F
GREAT FALLS MT FAIR      75  28  17 SW12      29.99F
CHEYENNE WY    FAIR      65  38  36 N16G25    30.17R
SCOTTSBLUFF NE FAIR      70  56  61 VRB7      30.05S
OMAHA NE       CLOUDY    77  68  73 W18       29.78R
DES MOINES IA  CLOUDY    79  71  76 S14       29.82S THUNDER
DAVENPORT IA   FAIR      82  71  69 SE12      29.92F
CHICAGO IL     FAIR      84  67  56 SE6       29.98F
EAU CLAIRE WI  PTSUNNY   75  63  66 SE12      29.93F
LA CROSSE WI   FAIR      81  64  56 E12       29.91F
$$

  *****  SOME NATIONAL WEATHER *****

CITY           SKY/WX    TMP DP  RH WIND       PRES   REMARKS
LA GUARDIA NY  PTSUNNY   84  63  49 N9        29.95S
RALEIGH NC     FAIR      88  71  57 NE7       30.04F HX  94
ATLANTA GA     FAIR      88  73  61 NW9       30.09F HX  95
NEW ORLEANS LA PTSUNNY   90  78  68 S9        30.07S HX 104
OKLAHOMA CITY  PTSUNNY   86  73  65 S17G24    29.88F HX  93
ALBUQUERQUE NM FAIR      76  39  26 SW8       30.18F
SALT LAKE CITY PTSUNNY   77  42  28 E5        30.08S
LOS ANGELES CA CLOUDY    72  57  59 CALM      29.98S
BOISE ID       FAIR      74  41  30 W5        30.03S
SEATTLE WA     FAIR      63  51  65 SW9       30.12R
$$

*** WEATHER ACROSS MANITOBA...SASKATCHEWAN AND ONTARIO ***
                ***ONTARIO***

CITY           SKY/WX    TMP DP  RH WIND       PRES   REMARKS
GERALDTON      MOSUNNY   70  50  49 S7        30.06F
THUNDER BAY    MOSUNNY   68  57  68 E12       30.04F
SIOUX LOOKOUT  CLOUDY    66  54  63 VRB2      29.99S
TORONTO        PTSUNNY   73  61  64 SE8       30.09F
BIG TROUT LK   SUNNY     72  55  56 SE5       29.95F
PICKLE LAKE    CLOUDY    70  57  64 SW7       29.99S
DRYDEN         LGT RAIN  63  57  82 E3        29.98F
KENORA         LGT RAIN  63  61  94 SE8       29.96S
$$
                *** MANITOBA***

CITY           SKY/WX    TMP DP  RH WIND       PRES   REMARKS
BRANDON        MOSUNNY   72  61  68 NW7       29.91S
DAUPHIN        SUNNY     73  55  53 W9        29.88S
ISLAND LAKE    NOT AVBL
PILOT MOUND      N/A     66  61  82 W7          N/A
THE PAS        MOSUNNY   72  52  49 S8        29.77F
THOMPSON       NOT AVBL
WINNIPEG       PTSUNNY  N/A N/A N/A SE6         N/A
LYNN LAKE      PTSUNNY   72  52  49 MISG      29.71S
GILLAM           N/A     73  57  56 S14       29.84S SMOKE
$$
                ***SASKATCHEWAN***

CITY           SKY/WX    TMP DP  RH WIND       PRES   REMARKS
ESTEVAN        MOSUNNY   72  48  43 VRB5      29.95S
KINDERSLEY     PTSUNNY   70  43  37 S5        29.92S
LLOYDMINSTER   CLOUDY    59  52  77 SW5       29.89S
PRINCE ALBERT  MOSUNNY   70  48  46 NW15G23   29.85S
REGINA         CLOUDY    70  48  46 W12       29.93F
YORKTON        SUNNY     70  52  52 SW15      29.90S
N. BATTLEFORD  MOSUNNY   66  50  55 W9        29.92S



USA.gov is the U.S. government's official web portal to all federal, state and local government web resources and services.